Powrót do katalogu

EXPRESS AM-1

AktywnyŁącznośćGEO
NORAD 28463·PAYLOAD·🇷🇺 Russia

Wystrzelony Oct 29, 2004 z Baikonur Cosmodrome

Loading…

TLE

ŚwieżeSource: Space-Track

Epoka: Sep 14, 2026, 13:32 UTC

1 28463U 04043A   26257.56423854  .00000063  00000-0  00000-0 0  9992
2 28463  11.6270  39.1863 0010654 235.4847 155.5632  0.99192461 79601

Śledź EXPRESS AM-1 w czasie rzeczywistym z AllMySat

Download on the App Store